FW6754 Weather Reports


Display with metric or nautical units.
time (UTC)temp
F
wind
direction
speed
MPH
gust
MPH
rain 1hr
in
rain 24hr
in
rain mn
in
humidity
%
barometer
mb
20260509222412 53 0.0 0.0 0.00 0.00 0.00 10 1013.4
20260509221911 53 0.0 0.0 0.00 0.00 0.00 10 1013.4
20260509221413 54 0.0 0.0 0.00 0.00 0.00 10 1013.3
20260509220911 54 0.0 0.0 0.00 0.00 0.00 10 1013.3
20260509220412 54 0.0 0.0 0.00 0.00 0.00 10 1013.3
20260509215911 54 0.0 0.0 0.00 0.00 0.00 10 1013.3
20260509214411 54 0.0 0.0 0.00 0.00 0.00 10 1013.4
20260509213912 54 0.0 0.0 0.00 0.00 0.00 10 1013.4
20260509213412 54 0.0 0.0 0.00 0.00 0.00 10 1013.4
20260509212911 54 0.0 0.0 0.00 0.00 0.00 10 1013.4
20260509212411 54 0.0 0.0 0.00 0.00 0.00 10 1013.3
20260509211912 55 0.0 0.0 0.00 0.00 0.00 10 1013.3
20260509211413 55 0.0 0.0 0.00 0.00 0.00 10 1013.2
20260509210911 55 0.0 0.0 0.00 0.00 0.00 10 1013.2
20260509205913 55 0.0 0.0 0.00 0.00 0.00 10 1013.3
20260509205412 55 0.0 0.0 0.00 0.00 0.00 10 1013.3
20260509203912 56 0.0 0.0 0.00 0.00 0.00 10 1013.2
20260509203411 56 0.0 0.0 0.00 0.00 0.00 10 1013.3
20260509202411 56 0.0 0.0 0.00 0.00 0.00 10 1013.3
20260509201911 57 0.0 0.0 0.00 0.00 0.00 10 1013.2
20260509201411 57 0.0 0.0 0.00 0.00 0.00 10 1013.1
20260509200911 57 0.0 0.0 0.00 0.00 0.00 10 1013.0
20260509200412 57 0.0 0.0 0.00 0.00 0.00 10 1013.0
20260509195912 57 0.0 0.0 0.00 0.00 0.00 10 1013.0
20260509195412 58 0.0 0.0 0.00 0.00 0.00 10 1013.0
20260509194913 58 0.0 0.0 0.00 0.00 0.00 10 1012.9
20260509194412 58 0.0 0.0 0.00 0.00 0.00 10 1012.9
20260509193912 58 0.0 0.0 0.00 0.00 0.00 10 1012.7
20260509193412 59 0.0 0.0 0.00 0.00 0.00 10 1012.8
20260509192912 59 0.0 0.0 0.00 0.00 0.00 10 1012.6
20260509192411 60 0.0 0.0 0.00 0.00 0.00 10 1012.7
20260509191911 60 0.0 0.0 0.00 0.00 0.00 10 1012.6
20260509191411 61 0.0 0.0 0.00 0.00 0.00 10 1012.6
20260509190911 61 0.0 0.0 0.00 0.00 0.00 10 1012.4
20260509190412 62 0.0 0.0 0.00 0.00 0.00 10 1012.5
20260509185913 62 0.0 0.0 0.00 0.00 0.00 10 1012.2
20260509185411 63 0.0 0.0 0.00 0.00 0.00 10 1012.2
20260509184412 64 0.0 0.0 0.00 0.00 0.00 10 1012.1
20260509183912 65 0.0 0.0 0.00 0.00 0.00 10 1012.0
20260509183411 66 0.0 0.0 0.00 0.00 0.00 10 1011.9
20260509182912 66 0.0 0.0 0.00 0.00 0.00 10 1011.8
20260509182412 67 0.0 0.0 0.00 0.00 0.00 10 1011.7
20260509181912 68 0.0 0.0 0.00 0.00 0.00 10 1011.5
20260509181412 69 0.0 0.0 0.00 0.00 0.00 10 1011.5
20260509180912 70 0.0 0.0 0.00 0.00 0.00 10 1011.4
20260509180412 71 0.0 0.0 0.00 0.00 0.00 10 1011.4
20260509175911 72 0.0 0.0 0.00 0.00 0.00 10 1011.3
20260509175412 73 0.0 0.0 0.00 0.00 0.00 10 1011.3
20260509174912 74 0.0 0.0 0.00 0.00 0.00 10 1011.2
20260509174411 76 0.0 0.0 0.00 0.00 0.00 10 1011.2
20260509173911 80 0.0 0.0 0.00 0.00 0.00 10 1011.0
20260509173411 87 0.0 0.0 0.00 0.00 0.00 10 1010.7
20260509172911 90 0.0 0.0 0.00 0.00 0.00 10 1010.5
20260509172412 87 0.0 0.0 0.00 0.00 0.00 10 1010.6
20260509171911 81 0.0 0.0 0.00 0.00 0.00 10 1010.8
20260509170411 79 0.0 0.0 0.00 0.00 0.00 10 1011.1
20260509165812 77 0.0 0.0 0.00 0.00 0.00 10 1011.2
20260509165722 78 0.0 0.0 0.00 0.00 0.00 10 1011.1
20260509165011 79 0.0 0.0 0.00 0.00 0.00 10 1011.2
20260509164547 78 0.0 0.0 0.00 0.00 0.00 10 1011.4
20260509163912 79 0.0 0.0 0.00 0.00 0.00 10 1011.3
20260509163413 79 0.0 0.0 0.00 0.00 0.00 10 1011.3
20260509162911 77 0.0 0.0 0.00 0.00 0.00 10 1011.5
20260509162411 77 0.0 0.0 0.00 0.00 0.00 10 1011.6
20260509161912 77 0.0 0.0 0.00 0.00 0.00 10 1011.7
20260509161411 76 0.0 0.0 0.00 0.00 0.00 10 1011.8
20260509160911 76 0.0 0.0 0.00 0.00 0.00 10 1011.9
20260509160411 77 0.0 0.0 0.00 0.00 0.00 10 1011.9
20260509155913 77 0.0 0.0 0.00 0.00 0.00 10 1011.9
20260509155411 78 0.0 0.0 0.00 0.00 0.00 10 1011.8
20260509154411 82 0.0 0.0 0.00 0.00 0.00 10 1011.7
20260509152412 93 0.0 0.0 0.00 0.00 0.00 10 1011.3
20260509151912 95 0.0 0.0 0.00 0.00 0.00 10 1011.2
20260509151412 96 0.0 0.0 0.00 0.00 0.00 10 1011.1
20260509150911 94 0.0 0.0 0.00 0.00 0.00 10 1011.2
20260509150412 93 0.0 0.0 0.00 0.00 0.00 10 1011.4
20260509145912 97 0.0 0.0 0.00 0.00 0.00 10 1011.2
20260509145411 97 0.0 0.0 0.00 0.00 0.00 10 1011.3
20260509144412 97 0.0 0.0 0.00 0.00 0.00 10 1011.3
20260509143911 96 0.0 0.0 0.00 0.00 0.00 10 1011.4
20260509142911 95 0.0 0.0 0.00 0.00 0.00 10 1011.5
20260509142412 95 0.0 0.0 0.00 0.00 0.00 10 1011.6
20260509141912 95 0.0 0.0 0.00 0.00 0.00 10 1011.6
20260509141412 98 0.0 0.0 0.00 0.00 0.00 10 1011.5
20260509140912 96 0.0 0.0 0.00 0.00 0.00 10 1011.7
20260509140412 94 0.0 0.0 0.00 0.00 0.00 10 1011.9
20260509135912 91 0.0 0.0 0.00 0.00 0.00 10 1011.9
20260509135412 92 0.0 0.0 0.00 0.00 0.00 10 1011.9
20260509134912 89 0.0 0.0 0.00 0.00 0.00 10 1012.0
20260509134412 84 0.0 0.0 0.00 0.00 0.00 10 1012.2
20260509133912 78 0.0 0.0 0.00 0.00 0.00 10 1012.5
20260509133412 77 0.0 0.0 0.00 0.00 0.00 10 1012.6
20260509132912 78 0.0 0.0 0.00 0.00 0.00 10 1012.6
20260509132411 78 0.0 0.0 0.00 0.00 0.00 10 1012.5
20260509131912 77 0.0 0.0 0.00 0.00 0.00 10 1012.5
20260509131412 78 0.0 0.0 0.00 0.00 0.00 10 1012.6
20260509130911 78 0.0 0.0 0.00 0.00 0.00 10 1012.6
20260509130411 77 0.0 0.0 0.00 0.00 0.00 10 1012.8
20260509125911 78 0.0 0.0 0.00 0.00 0.00 10 1012.9
20260509125411 81 0.0 0.0 0.00 0.00 0.00 10 1012.6
20260509123913 78 0.0 0.0 0.00 0.00 0.00 10 1012.9
20260509123412 81 0.0 0.0 0.00 0.00 0.00 10 1012.8
20260509122911 88 0.0 0.0 0.00 0.00 0.00 10 1012.5
20260509121912 92 0.0 0.0 0.00 0.00 0.00 10 1012.4
20260509121412 91 0.0 0.0 0.00 0.00 0.00 10 1012.4
20260509120913 89 0.0 0.0 0.00 0.00 0.00 10 1012.5
20260509120412 90 0.0 0.0 0.00 0.00 0.00 10 1012.5
20260509115912 88 0.0 0.0 0.00 0.00 0.00 10 1012.6
20260509114911 76 0.0 0.0 0.00 0.00 0.00 10 1013.3
20260509114411 74 0.0 0.0 0.00 0.00 0.00 10 1013.5
20260509113912 74 0.0 0.0 0.00 0.00 0.00 10 1013.5
20260509113412 74 0.0 0.0 0.00 0.00 0.00 10 1013.4
20260509112911 75 0.0 0.0 0.00 0.00 0.00 10 1013.6
20260509112411 74 0.0 0.0 0.00 0.00 0.00 10 1013.6
20260509110911 73 0.0 0.0 0.00 0.00 0.00 10 1013.8
20260509110412 73 0.0 0.0 0.00 0.00 0.00 10 1013.8
20260509105911 73 0.0 0.0 0.00 0.00 0.00 10 1013.7
20260509104912 72 0.0 0.0 0.00 0.00 0.00 10 1014.0
20260509103911 72 0.0 0.0 0.00 0.00 0.00 10 1014.1
20260509102912 72 0.0 0.0 0.00 0.00 0.00 10 1014.0
20260509102412 72 0.0 0.0 0.00 0.00 0.00 10 1014.2
20260509101912 72 0.0 0.0 0.00 0.00 0.00 10 1014.3
20260509101412 72 0.0 0.0 0.00 0.00 0.00 10 1014.3
20260509100412 71 0.0 0.0 0.00 0.00 0.00 10 1014.4
20260509095912 71 0.0 0.0 0.00 0.00 0.00 10 1014.3
20260509095411 71 0.0 0.0 0.00 0.00 0.00 10 1014.4
20260509094411 70 0.0 0.0 0.00 0.00 0.00 10 1014.4
20260509093411 70 0.0 0.0 0.00 0.00 0.00 10 1014.5
20260509091911 69 0.0 0.0 0.00 0.00 0.00 10 1014.7
20260509090911 68 0.0 0.0 0.00 0.00 0.00 10 1014.7
20260509090412 68 0.0 0.0 0.00 0.00 0.00 10 1014.8
20260509085912 67 0.0 0.0 0.00 0.00 0.00 10 1014.9
20260509085413 67 0.0 0.0 0.00 0.00 0.00 10 1014.9
20260509084912 67 0.0 0.0 0.00 0.00 0.00 10 1014.9
20260509084411 67 0.0 0.0 0.00 0.00 0.00 10 1015.0
20260509083912 66 0.0 0.0 0.00 0.00 0.00 10 1015.0
20260509083411 66 0.0 0.0 0.00 0.00 0.00 10 1015.2
20260509082412 66 0.0 0.0 0.00 0.00 0.00 10 1015.2
20260509081912 65 0.0 0.0 0.00 0.00 0.00 10 1015.2
20260509081412 65 0.0 0.0 0.00 0.00 0.00 10 1015.2
20260509080912 65 0.0 0.0 0.00 0.00 0.00 10 1015.4
20260509080412 64 0.0 0.0 0.00 0.00 0.00 10 1015.5
20260509075912 64 0.0 0.0 0.00 0.00 0.00 10 1015.4
20260509075411 64 0.0 0.0 0.00 0.00 0.00 10 1015.6
20260509074912 63 0.0 0.0 0.00 0.00 0.00 10 1015.6
20260509074411 62 0.0 0.0 0.00 0.00 0.00 10 1015.7
20260509073912 62 0.0 0.0 0.00 0.00 0.00 10 1015.9
20260509073412 62 0.0 0.0 0.00 0.00 0.00 10 1015.9
20260509072911 61 0.0 0.0 0.00 0.00 0.00 10 1016.0
20260509072412 61 0.0 0.0 0.00 0.00 0.00 10 1016.1
20260509071912 60 0.0 0.0 0.00 0.00 0.00 10 1016.1
20260509071413 60 0.0 0.0 0.00 0.00 0.00 10 1016.1
20260509070912 59 0.0 0.0 0.00 0.00 0.00 10 1016.2
20260509070412 59 0.0 0.0 0.00 0.00 0.00 10 1016.3
20260509065912 58 0.0 0.0 0.00 0.00 0.00 10 1016.3
20260509065812 58 0.0 0.0 0.00 0.00 0.00 10 1016.3
20260509065711 58 0.0 0.0 0.00 0.00 0.00 10 1016.4
20260509065611 58 0.0 0.0 0.00 0.00 0.00 10 1016.4
20260509064612 56 0.0 0.0 0.00 0.00 0.00 10 1016.7
20260509064112 55 0.0 0.0 0.00 0.00 0.00 10 1016.7
20260509063611 55 0.0 0.0 0.00 0.00 0.00 10 1016.7
20260509063111 54 0.0 0.0 0.00 0.00 0.00 10 1016.8
20260509062121 53 0.0 0.0 0.00 0.00 0.00 10 1016.9
20260509061411 52 0.0 0.0 0.00 0.00 0.00 10 1016.9
20260509060411 51 0.0 0.0 0.00 0.00 0.00 10 1016.9
20260509055911 51 0.0 0.0 0.00 0.00 0.00 10 1016.9
20260509055411 50 0.0 0.0 0.00 0.00 0.00 10 1016.9
20260509054912 50 0.0 0.0 0.00 0.00 0.00 10 1017.0
20260509054411 49 0.0 0.0 0.00 0.00 0.00 10 1017.0
20260509053411 49 0.0 0.0 0.00 0.00 0.00 10 1016.9
20260509052411 48 0.0 0.0 0.00 0.00 0.00 10 1016.9
20260509051411 48 0.0 0.0 0.00 0.00 0.00 10 1016.8
20260509050912 48 0.0 0.0 0.00 0.00 0.00 10 1016.8
20260509050412 48 0.0 0.0 0.00 0.00 0.00 10 1016.7
20260509045912 48 0.0 0.0 0.00 0.00 0.00 10 1016.7
20260509045412 47 0.0 0.0 0.00 0.00 0.00 10 1016.6
20260509044912 47 0.0 0.0 0.00 0.00 0.00 10 1016.7
20260509044411 47 0.0 0.0 0.00 0.00 0.00 10 1016.7
20260509043912 47 0.0 0.0 0.00 0.00 0.00 10 1016.7
20260509043413 47 0.0 0.0 0.00 0.00 0.00 10 1016.5
20260509042912 47 0.0 0.0 0.00 0.00 0.00 10 1016.5
20260509042411 47 0.0 0.0 0.00 0.00 0.00 10 1016.5
20260509041912 47 0.0 0.0 0.00 0.00 0.00 10 1016.5
20260509041411 47 0.0 0.0 0.00 0.00 0.00 10 1016.4
20260509040911 47 0.0 0.0 0.00 0.00 0.00 10 1016.4
20260509040411 47 0.0 0.0 0.00 0.00 0.00 10 1016.5
20260509035912 47 0.0 0.0 0.00 0.00 0.00 10 1016.5
20260509035412 47 0.0 0.0 0.00 0.00 0.00 10 1016.4
20260509034912 47 0.0 0.0 0.00 0.00 0.00 10 1016.4
20260509034411 47 0.0 0.0 0.00 0.00 0.00 10 1016.4
20260509033913 47 0.0 0.0 0.00 0.00 0.00 10 1016.5
20260509033412 47 0.0 0.0 0.00 0.00 0.00 10 1016.4
20260509032912 47 0.0 0.0 0.00 0.00 0.00 10 1016.4
20260509032412 48 0.0 0.0 0.00 0.00 0.00 10 1016.4
20260509031912 48 0.0 0.0 0.00 0.00 0.00 10 1016.4
20260509031411 48 0.0 0.0 0.00 0.00 0.00 10 1016.5
20260509025412 48 0.0 0.0 0.00 0.00 0.00 10 1016.3
20260509024912 48 0.0 0.0 0.00 0.00 0.00 10 1016.4
20260509023911 49 0.0 0.0 0.00 0.00 0.00 10 1016.4
20260509023411 49 0.0 0.0 0.00 0.00 0.00 10 1016.4
20260509022412 50 0.0 0.0 0.00 0.00 0.00 10 1016.4
20260509021912 50 0.0 0.0 0.00 0.00 0.00 10 1016.4
20260509021412 50 0.0 0.0 0.00 0.00 0.00 10 1016.4
20260509020911 50 0.0 0.0 0.00 0.00 0.00 10 1016.5
20260509015912 50 0.0 0.0 0.00 0.00 0.00 10 1016.6
20260509015411 50 0.0 0.0 0.00 0.00 0.00 10 1016.5
20260509014411 50 0.0 0.0 0.00 0.00 0.00 10 1016.6
20260509013911 50 0.0 0.0 0.00 0.00 0.00 10 1016.5
20260509012912 49 0.0 0.0 0.00 0.00 0.00 10 1016.6
20260509012411 49 0.0 0.0 0.00 0.00 0.00 10 1016.6
20260509011911 49 0.0 0.0 0.00 0.00 0.00 10 1016.7
20260509010911 49 0.0 0.0 0.00 0.00 0.00 10 1016.8
20260509010411 49 0.0 0.0 0.00 0.00 0.00 10 1016.8
20260509005911 49 0.0 0.0 0.00 0.00 0.00 10 1016.8
20260509005411 50 0.0 0.0 0.00 0.00 0.00 10 1016.9
20260509004912 50 0.0 0.0 0.00 0.00 0.00 10 1016.9
20260509004412 50 0.0 0.0 0.00 0.00 0.00 10 1017.0
20260509003912 50 0.0 0.0 0.00 0.00 0.00 10 1017.0
20260509003412 50 0.0 0.0 0.00 0.00 0.00 10 1016.9
20260509002912 50 0.0 0.0 0.00 0.00 0.00 10 1016.9
20260509002412 51 0.0 0.0 0.00 0.00 0.00 10 1016.9
20260509001912 51 0.0 0.0 0.00 0.00 0.00 10 1016.8
20260509001412 51 0.0 0.0 0.00 0.00 0.00 10 1016.8
20260509000912 51 0.0 0.0 0.00 0.00 0.00 10 1016.8
20260509000412 51 0.0 0.0 0.00 0.00 0.00 10 1016.8
20260508235912 52 0.0 0.0 0.00 0.00 0.00 10 1016.8
20260508235412 52 0.0 0.0 0.00 0.00 0.00 10 1016.8
20260508234912 52 0.0 0.0 0.00 0.00 0.00 10 1016.8
20260508234411 52 0.0 0.0 0.00 0.00 0.00 10 1016.9
20260508233912 52 0.0 0.0 0.00 0.00 0.00 10 1017.0
20260508233411 52 0.0 0.0 0.00 0.00 0.00 10 1017.1
20260508232912 52 0.0 0.0 0.00 0.00 0.00 10 1017.2
20260508232412 52 0.0 0.0 0.00 0.00 0.00 10 1017.3
20260508231911 52 0.0 0.0 0.00 0.00 0.00 10 1017.3
20260508231412 52 0.0 0.0 0.00 0.00 0.00 10 1017.4
20260508230912 52 0.0 0.0 0.00 0.00 0.00 10 1017.4
20260508230412 52 0.0 0.0 0.00 0.00 0.00 10 1017.6
20260508225912 52 0.0 0.0 0.00 0.00 0.00 10 1017.5
20260508225412 52 0.0 0.0 0.00 0.00 0.00 10 1017.6
20260508224911 52 0.0 0.0 0.00 0.00 0.00 10 1017.6
20260508224411 52 0.0 0.0 0.00 0.00 0.00 10 1017.7
20260508223412 52 0.0 0.0 0.00 0.00 0.00 10 1017.4
20260508222911 52 0.0 0.0 0.00 0.00 0.00 10 1017.3